Regional Weather Roundup
Issued by NWS Albany, NY

Home | Current Version | Previous Version | Graphics & Text | Print | Product List | Glossary Off
Versions: 1 2 3 4 5 6 7 8 9 10 11 12 13 14 15 16 17 18 19 20 21 22 23 24 25 26 27

000
ASUS41 KALY 201310
RWRALY

NEW YORK STATE HOURLY WEATHER ROUNDUP
NATIONAL WEATHER SERVICE ALBANY NY
900 AM EDT THU JUL 20 2017

NOTE: "FAIR" INDICATES FEW OR NO CLOUDS BELOW 12,000 FEET WITH NO
SIGNIFICANT WEATHER AND/OR NO OBSTRUCTIONS TO VISIBILITY.

NYZ032-033-038>043-046>054-057>066-NYZ062>081-082-084-201400-
EAST


CITY           SKY/WX    TMP DP  RH WIND       PRES   REMARKS
ALBANY         PTSUNNY   76  66  71 SE5       29.97S
GLENS FALLS    MOSUNNY   75  67  76 S5        29.96S
POUGHKEEPSIE   MOSUNNY   78  68  71 CALM      29.98F
NEWBURGH       MOSUNNY   77  72  83 CALM      30.02S
MONTGOMERY     MOSUNNY   80  71  74 VRB3      29.99F
WHITE PLAINS   SUNNY     84  63  48 CALM      29.99S
ISLIP          CLOUDY    84  70  62 SE3       29.98S
NEW YORK CITY  PTSUNNY   83  71  67 NE5       29.97S
CENTRAL PARK   MOSUNNY   82  71  69 CALM      30.01S
$$

NYZ005>009-017-018-044>046-055-056-201400-
CENTRAL


CITY           SKY/WX    TMP DP  RH WIND       PRES   REMARKS
FULTON         CLOUDY    73  67  81 W5        30.00S
SYRACUSE       PTSUNNY   75  68  78 W7        30.00R
ROME           CLOUDY    72  69  90 NW5       30.01R
ELMIRA         PTSUNNY   72  68  87 SW3       30.03S
BINGHAMTON     CLOUDY    71  66  84 SW6       30.05S
$$

NYZ026>034-041>043-087-201400-
NORTH


CITY           SKY/WX    TMP DP  RH WIND       PRES   REMARKS
WATERTOWN      MOSUNNY   74  69  85 W9        29.98R
FORT DRUM      NOT AVBL
OGDENSBURG     FAIR      75  70  84 SW5       29.95S
MASSENA        PTSUNNY   71  68  90 SW5       29.96R
SARANAC LAKE   MOSUNNY   70  67  90 SW7       30.00R
PLATTSBURGH    SUNNY     74  66  76 SE6       29.94R
$$

NYZ001>004-010>016-019>021-085-201400-
WEST


CITY           SKY/WX    TMP DP  RH WIND       PRES   REMARKS
NIAGARA FALLS  PTSUNNY   75  61  61 S6        29.98F
BUFFALO        CLOUDY    74  65  73 SW10      30.00F
DUNKIRK        SUNNY     76  68  76 S5        30.00F
JAMESTOWN      SUNNY     72  63  73 S6        30.06F
WELLSVILLE     MOSUNNY   73  64  73 SW6       30.11R
ROCHESTER      PTSUNNY   74  67  78 W6        30.01S
PENN YAN       PTSUNNY   74  65  73 SW7       30.03S
$$

             KEY
       WCI = WIND CHILL INDEX
       VSB = VISIBILITY
       HX  = HEAT INDEX
$$




USA.gov is the U.S. government's official web portal to all federal, state and local government web resources and services.